Lid_Strength_Index
5 5 5 5 5 5 5 5 5 5 5 5 5 5 4 4 5 5 8 5 5 3 5 6 5 4 4 5 4 4 8 9 8 7 6 4 6 4 4 5 4 3 3 2 1
6 6 6 5 5 5 5 5 5 5 5 5 5 4 4 4 6 7 3 1 1 2 6 8 7 6 6 6 5 6 8 8 5 5 6 5 6 5 5 5 5 4 2 2 2
6 6 6 6 5 5 5 5 5 5 5 5 4 4 4 5 8 7 3 3 2 1 3 5 6 6 7 6 6 6 8 6 6 5 4 5 5 5 5 6 5 5 4 2 2
6 6 6 5 5 5 5 5 5 5 5 5 4 4 3 5 13 5 3 4 4 3 3 5 7 8 9 8 6 8 6 6 6 5 5 6 5 5 5 5 4 3 3 3 3
6 6 6 5 5 5 5 5 5 5 5 4 4 4 5 8 8 3 1 2 4 5 5 5 7 7 9 8 7 8 7 6 5 5 5 5 6 6 5 4 3 3 3 3 3
6 6 6 5 5 5 5 5 4 4 4 4 4 4 6 11 4 3 4 5 5 6 6 6 7 7 8 8 8 7 7 7 6 6 6 7 6 6 5 4 4 4 4 3 3
6 6 6 5 5 5 5 5 4 4 4 4 4 4 7 9 4 4 4 4 4 5 5 4 5 6 7 9 7 8 9 8 8 7 7 6 8 7 5 4 5 4 4 3 3
6 6 6 5 5 5 4 4 4 4 3 3 2 4 8 3 3 5 4 4 4 4 5 4 3 5 7 6 8 9 9 12 8 8 8 8 11 7 4 5 5 5 4 4 3
6 6 5 5 5 4 4 3 3 3 3 2 3 5 8 3 5 4 4 5 5 4 4 4 5 6 7 9 10 10 12 11 10 7 8 9 11 8 5 5 5 4 4 3 3
6 5 5 5 4 3 3 3 3 2 3 3 4 7 7 9 6 5 4 3 5 6 6 7 7 9 9 10 13 12 12 11 11 8 8 9 10 8 6 5 5 5 4 3 3
5 4 4 4 3 3 3 4 7 7 6 9 9 9 8 6 5 6 5 5 5 7 10 8 10 12 10 9 8 9 11 11 10 8 8 9 9 8 7 6 6 5 5 4 4
5 4 4 4 4 4 3 6 7 7 11 7 7 7 4 3 5 4 3 8 7 8 8 9 11 10 8 8 9 9 11 11 10 8 9 10 10 8 7 7 6 5 5 4 4
4 4 4 4 4 3 4 6 3 5 10 8 5 4 4 3 6 5 5 7 9 9 7 9 10 8 7 8 10 10 11 11 12 10 11 11 12 10 9 8 7 6 5 5 5
5 4 4 3 5 4 5 3 2 3 11 8 6 5 4 4 7 2 3 5 8 11 7 7 7 7 8 9 9 12 10 11 12 13 16 11 16 11 10 10 8 7 7 6 6
5 4 4 3 4 5 4 2 2 5 16 7 6 3 5 7 5 6 2 4 9 9 9 9 8 8 9 9 8 10 9 11 12 13 13 13 14 12 8 11 10 8 7 6 4
4 3 3 3 2 3 2 1 2 12 16 9 7 8 8 7 7 5 5 3 4 8 8 8 5 6 7 8 8 9 11 11 12 13 16 13 14 13 12 10 8 8 6 4 4
3 3 3 2 4 1 1 3 12 14 7 10 10 8 8 10 10 7 7 8 9 11 13 9 9 6 6 8 8 10 12 17 18 17 17 12 13 12 8 9 7 6 5 4 4
3 3 3 2 1 1 2 7 15 10 10 7 8 9 11 10 9 10 8 9 7 8 11 12 14 9 6 8 10 10 11 16 20 18 16 11 14 11 8 6 5 5 4 4 4
3 2 2 1 0 1 5 11 11 10 8 8 8 11 10 10 11 11 10 11 8 7 12 12 12 7 7 7 7 10 12 9 12 12 15 12 10 8 7 6 6 5 5 5 4
3 4 4 1 -0 2 6 11 9 7 7 7 10 9 12 12 12 13 12 10 11 8 7 9 12 8 7 6 7 8 8 12 11 17 17 13 12 12 9 8 7 6 6 5 4
3 6 3 1 0 4 9 9 8 6 6 8 9 10 10 11 11 13 13 10 8 9 7 9 10 10 8 10 10 10 10 10 10 12 15 16 13 8 8 7 7 6 5 5 5
4 7 2 1 6 5 8 8 7 7 5 7 7 8 9 9 10 11 11 10 8 8 12 9 11 12 10 7 6 8 9 9 12 13 12 13 15 6 6 6 6 6 5 5 4
6 6 2 2 8 7 7 7 6 7 7 7 8 7 7 9 12 9 9 7 7 8 11 10 12 17 15 10 8 9 9 8 9 9 13 14 13 6 6 6 6 6 6 5 5
6 8 5 4 5 8 8 9 8 5 6 6 7 6 7 9 7 10 9 7 6 7 7 8 12 14 17 15 10 11 9 9 9 12 12 12 14 10 8 7 8 7 6 5 5
5 8 7 8 7 8 7 8 9 9 6 6 7 7 8 10 9 9 8 7 6 6 7 9 13 11 11 11 10 11 11 9 10 10 12 11 11 10 9 8 7 7 6 6 6
10 7 6 6 9 8 9 9 9 8 8 8 8 8 8 9 9 10 8 8 9 7 8 8 13 11 12 9 10 11 9 9 9 9 9 9 9 7 7 7 7 7 6 7 8
3 3 6 8 9 9 8 9 9 8 8 8 8 9 9 8 6 6 6 6 6 8 9 10 12 12 14 10 10 13 10 9 9 8 9 11 10 7 9 8 8 8 8 9 9